User: anonymous   Login
Location: Rochester
(43.1610°N, 77.6109°W)
Time: 04:22:33
(UTC-05:00)
Language:

Hubble Space Telescope - Orbit

View from above orbital plane
View from above orbital plane
View from above satellite
View from above satellite

Ground track
Ground track

The orbit data is extracted from the following two-line orbital elements,

1 20580U 90037B   22340.77531222  .00002512  00000-0  13455-3 0  9995
2 20580  28.4694 106.3735 0002885  96.4347  52.8958 15.11354058592579
Epoch (UTC): 06 December 2022 18:36:26
Eccentricity: 0.0002885
inclination: 28.4694°
perigee height: 530 km
apogee height: 534 km
right ascension of ascending node: 106.3735°
argument of perigee: 96.4347°
revolutions per day: 15.11354058
mean anomaly at epoch: 52.8958°
orbit number at epoch: 59257

The dashed part of the orbit path shows where the satellite is in the earth's shadow,  

DLR